STARLINK-36176 (67026 NORAD) Tracking and Keplerian Element Data

This shows tracking and keplerian element data for the satellite.

Feedback or suggestion? Click here.




ElementValue
Catalog67026
NameSTARLINK-36176
Epoch Orbit143
Epoch Day354.25003472
Epoch Year2025
RAAN301.9193
Inclination69.9932
Eccentricity0.0003995
Argument of Perigee273.1485
Mean Anonmoly350.8462
Mean Motion15.9312591
Decay Rate-0.01320138
L11 67026U 25293Z 25354.25003472 -.01320138 51038-3 -37602-2 0 9994
L22 67026 69.9932 301.9193 0003995 273.1485 350.8462 15.93125910 1435



Live tracking and technical data element details for STARLINK-36176 (NORAD 67026). STARLINK-36176 can be tracked NOW for your location showing map with azimuth and elevation plus other details from your city location.







IsCatalogInMostPopularTable: catalog: 67026, numindb: 12
Update: records affected: 1



GetName: 67026 STARLINK-36176

Hit Count: updated at: Fri, 16 Jan 2026 10:17:31 GMT